(654) Zelinda(654) Zelinda Epoch 2008 Nov. 30.0 TT = JDT 2454800.5 MPC M 339.11516 (2000.0) P Q n 0.28320356 Peri. 213.94151 -0.64835310 -0.69640204 a 2.2965201 Node 278.57161 +0.74919194 -0.51168691 e 0.2323762 Incl. 18.12843 +0.13546105 -0.50319052 P 3.48 H 8.52 G 0.15 U 0 From 834 observations at 48 oppositions, 1908-2008, mean residual 0".62.An explanation of the orbital elements is available.
These orbital elements are also available in forms suitable for loading into a number of popular planetarium-type software programs.
Personalized ephemerides for this object (and others) can be generated using the MPES.
Date TT R. A. (2000) Decl. Delta r Elong. Phase V 2009 01 01 08 25.60 +09 31.5 0.850 1.782 152.6 14.7 10.2 2009 01 06 08 20.49 +08 04.0 0.829 1.778 157.4 12.3 10.1 2009 01 11 08 14.67 +06 39.2 0.814 1.774 161.4 10.2 10.0 2009 01 16 08 08.39 +05 18.6 0.805 1.771 163.8 8.9 9.9 2009 01 21 08 01.89 +04 03.9 0.801 1.768 163.9 8.9 9.9 2009 01 26 07 55.49 +02 56.3 0.804 1.766 161.6 10.1 9.9 2009 01 31 07 49.46 +01 56.9 0.813 1.764 157.8 12.2 10.0 2009 02 05 07 44.08 +01 06.0 0.826 1.763 153.2 14.6 10.2 2009 02 10 07 39.55 +00 23.6 0.845 1.763 148.3 17.1 10.3 2009 02 15 07 36.00 -00 10.8 0.869 1.763 143.4 19.5 10.4 2009 02 20 07 33.53 -00 37.8 0.896 1.764 138.6 21.8 10.6 2009 02 25 07 32.18 -00 58.4 0.928 1.765 133.9 23.8 10.7 2009 03 02 07 31.97 -01 13.9 0.962 1.767 129.5 25.6 10.8 2009 03 07 07 32.85 -01 25.2 0.999 1.769 125.4 27.2 11.0 2009 03 12 07 34.78 -01 33.6 1.038 1.772 121.4 28.6 11.1 2009 03 17 07 37.67 -01 39.9 1.079 1.775 117.6 29.8 11.2 2009 03 22 07 41.46 -01 45.0 1.122 1.779 114.1 30.7 11.3 2009 03 27 07 46.06 -01 49.5 1.166 1.783 110.8 31.5 11.5 2009 04 01 07 51.41 -01 54.2 1.212 1.788 107.6 32.2 11.6 2009 04 06 07 57.44 -01 59.7 1.258 1.794 104.6 32.7 11.7 2009 04 11 08 04.06 -02 06.4 1.305 1.799 101.7 33.0 11.8 2009 04 16 08 11.21 -02 14.5 1.354 1.806 98.9 33.3 11.9 2009 04 21 08 18.84 -02 24.5 1.402 1.813 96.3 33.4 11.9